Location: Unspecified
(58.9933°N, 5.6375°E)
Time: 23:41:28
(UTC+01:00)

Cosmos 2058 - Pass Details

Date: 29 January 2018
Orbit: 563 x 585 km, 82.5° (Epoch: 21 February)

Event Time Altitude Azimuth Distance (km) Brightness Sun altitude
Rises 20:10:06 0° 234° (SW) 2,808 7.1 -25.4°
Reaches altitude 10° 20:12:41 10° 249° (WSW) 1,913 6.3 -25.7°
Maximum altitude 20:16:02 22° 302° (WNW) 1,299 5.3 -26.1°
Drops below altitude 10° 20:19:23 10° 354° (N) 1,924 5.7 -26.6°
Enters shadow 20:21:19 - 7° (N) 2,574 6.3 -26.8°
